,,PA_Meas_PMT16A,,PR_Meas_QMR101_102,,RH_Meas_QMH101,,SR_Meas_QMS101,,TA_Meas_QMH101,,GenWind,,GenWind,
time,status,PA,status,PR,status,RH,status,SR,status,TA,status,DirAvg,status,SpdAvg,
2011-04-13, 00:00:05,VALID,918.369,VALID,0,VALID,94.1873,VALID,0,VALID,20.4049,VALID,350,VALID,1.44023,
2011-04-13, 00:01:05,VALID,918.374,VALID,0,VALID,94.294,VALID,0,VALID,20.4228,VALID,350,VALID,1.17695,
2011-04-13, 00:02:05,VALID,918.368,VALID,0,VALID,94.1873,VALID,0,VALID,20.4213,VALID,350,VALID,0.650781,
2011-04-13, 00:03:05,VALID,918.363,VALID,0,VALID,94.0348,VALID,0,VALID,20.4228,VALID,350,VALID,0.349219,
2011-04-13, 00:04:05,VALID,918.384,VALID,0,VALID,94.1416,VALID,0,VALID,20.4423,VALID,350,VALID,0.826563,
2011-04-13, 00:05:05,VALID,918.365,VALID,0,VALID,94.0958,VALID,0,VALID,20.4618,VALID,350,VALID,0.521875,
2011-04-13, 00:06:05,VALID,918.387,VALID,0,VALID,94.0196,VALID,0,VALID,20.4618,VALID,350,VALID,0.497656,
2011-04-13, 00:07:05,VALID,918.369,VALID,0,VALID,93.8671,VALID,0,VALID,20.4829,VALID,350,VALID,0.482812,
2011-04-13, 00:08:05,VALID,918.386,VALID,0,VALID,93.8366,VALID,0,VALID,20.4829,VALID,350,VALID,0.623047,
2011-04-13, 00:09:05,VALID,918.378,VALID,0,VALID,93.9129,VALID,0,VALID,20.4813,VALID,350,VALID,1.01758,
2011-04-13, 00:10:05,VALID,918.391,VALID,0,VALID,94.0196,VALID,0,VALID,20.4618,VALID,350,VALID,1.04375,
2011-04-13, 00:11:05,VALID,918.358,VALID,0,VALID,94.0882,VALID,0,VALID,20.4634,VALID,350,VALID,1.1043,
2011-04-13, 00:12:05,VALID,918.402,VALID,0,VALID,94.1797,VALID,0,VALID,20.504,VALID,350,VALID,0.998828,
2011-04-13, 00:13:05,VALID,918.396,VALID,0,VALID,94.2559,VALID,0,VALID,20.5024,VALID,350,VALID,0.541016,
2011-04-13, 00:14:05,VALID,918.404,VALID,0,VALID,94.1797,VALID,0,VALID,20.504,VALID,350,VALID,0.830078,
2011-04-13, 00:15:05,VALID,918.411,VALID,0,VALID,94.0958,VALID,0,VALID,20.4829,VALID,350,VALID,0.717969,
2011-04-13, 00:16:05,VALID,918.41,VALID,0,VALID,94.1111,VALID,0,VALID,20.4829,VALID,350,VALID,0.938281,
2011-04-13, 00:17:05,VALID,918.443,VALID,0,VALID,94.0577,VALID,0,VALID,20.4603,VALID,350,VALID,0.534766,
2011-04-13, 00:18:05,VALID,918.469,VALID,0,VALID,94.0882,VALID,0,VALID,20.5219,VALID,350,VALID,0.560547,
2011-04-13, 00:19:05,VALID,918.425,VALID,0,VALID,94.1339,VALID,0,VALID,20.5414,VALID,350,VALID,0.733594,
2011-04-13, 00:20:05,VALID,918.468,VALID,0,VALID,94.0653,VALID,0,VALID,20.5204,VALID,350,VALID,0.755469,
2011-04-13, 00:21:05,VALID,918.447,VALID,0,VALID,94.0272,VALID,0,VALID,20.5609,VALID,350,VALID,0.801953,
2011-04-13, 00:22:05,VALID,918.45,VALID,0,VALID,93.9281,VALID,0,VALID,20.5399,VALID,350,VALID,0.905859,
2011-04-13, 00:23:05,VALID,918.448,VALID,0,VALID,93.8824,VALID,0,VALID,20.5804,VALID,350,VALID,0.590234,
2011-04-13, 00:24:04,VALID,918.426,VALID,0,VALID,93.8519,VALID,0,VALID,20.5594,VALID,350,VALID,0.600781,
2011-04-13, 00:25:04,VALID,918.441,VALID,0,VALID,93.8671,VALID,0,VALID,20.5804,VALID,350,VALID,0.544141,
2011-04-13, 00:26:04,VALID,918.381,VALID,0,VALID,93.8443,VALID,0,VALID,20.5804,VALID,350,VALID,0.730859,
2011-04-13, 00:27:04,VALID,918.331,VALID,0,VALID,93.8976,VALID,0,VALID,20.5399,VALID,350,VALID,1.38672,
2011-04-13, 00:28:04,VALID,918.341,VALID,0,VALID,93.9357,VALID,0,VALID,20.5399,VALID,350,VALID,0.700781,
2011-04-13, 00:29:04,VALID,918.309,VALID,0,VALID,93.89,VALID,0,VALID,20.5399,VALID,350,VALID,0.508594,
2011-04-13, 00:30:04,VALID,918.283,VALID,0,VALID,93.9129,VALID,0,VALID,20.5609,VALID,350,VALID,0.921094,
2011-04-13, 00:31:04,VALID,918.264,VALID,0,VALID,93.7833,VALID,0,VALID,20.5609,VALID,350,VALID,0.964453,
2011-04-13, 00:32:04,VALID,918.262,VALID,0,VALID,93.7223,VALID,0,VALID,20.5609,VALID,350,VALID,0.891016,
2011-04-13, 00:33:04,VALID,918.215,VALID,0,VALID,93.7147,VALID,0,VALID,20.5399,VALID,350,VALID,1.20586,
2011-04-13, 00:34:04,VALID,918.215,VALID,0,VALID,93.6918,VALID,0,VALID,20.5414,VALID,350,VALID,0.81875,
2011-04-13, 00:35:04,VALID,918.218,VALID,0,VALID,93.6842,VALID,0,VALID,20.5009,VALID,350,VALID,1.2,
2011-04-13, 00:36:04,VALID,918.251,VALID,0,VALID,93.6308,VALID,0,VALID,20.5414,VALID,350,VALID,0.839063,
2011-04-13, 00:37:04,VALID,918.242,VALID,0,VALID,93.6308,VALID,0,VALID,20.5204,VALID,350,VALID,0.832031,
2011-04-13, 00:38:04,VALID,918.275,VALID,0,VALID,93.5927,VALID,0,VALID,20.5204,VALID,350,VALID,0.419531,
2011-04-13, 00:39:04,VALID,918.263,VALID,0,VALID,93.5012,VALID,0,VALID,20.5399,VALID,350,VALID,0.296875,
2011-04-13, 00:40:04,VALID,918.286,VALID,0,VALID,93.364,VALID,0,VALID,20.5594,VALID,350,VALID,0.381641,
2011-04-13, 00:41:04,VALID,918.285,VALID,0,VALID,93.2801,VALID,0,VALID,20.6194,VALID,350,VALID,0.405469,
2011-04-13, 00:42:04,VALID,918.273,VALID,0,VALID,93.0057,VALID,0,VALID,20.5984,VALID,350,VALID,0.55625,
2011-04-13, 00:43:04,VALID,918.259,VALID,0,VALID,92.8303,VALID,0,VALID,20.639,VALID,350,VALID,0.695313,
2011-04-13, 00:44:04,VALID,918.241,VALID,0,VALID,92.6779,VALID,0,VALID,20.6194,VALID,350,VALID,0.395703,
2011-04-13, 00:45:04,VALID,918.22,VALID,0,VALID,92.5788,VALID,0,VALID,20.6194,VALID,350,VALID,0.339453,
2011-04-13, 00:46:04,VALID,918.182,VALID,0,VALID,92.4339,VALID,0,VALID,20.6194,VALID,350,VALID,0.578125,
2011-04-13, 00:47:04,VALID,918.176,VALID,0,VALID,92.4644,VALID,0,VALID,20.5999,VALID,350,VALID,0.555859,
2011-04-13, 00:48:04,VALID,918.176,VALID,0,VALID,92.6931,VALID,0,VALID,20.5804,VALID,350,VALID,0.517187,
2011-04-13, 00:49:04,VALID,918.148,VALID,0,VALID,92.594,VALID,0,VALID,20.5609,VALID,350,VALID,0.428125,
2011-04-13, 00:50:04,VALID,918.144,VALID,0,VALID,92.7846,VALID,0,VALID,20.5219,VALID,350,VALID,0.237891,
2011-04-13, 00:51:04,VALID,918.123,VALID,0,VALID,92.8227,VALID,0,VALID,20.5024,VALID,350,VALID,0.334375,
2011-04-13, 00:52:04,VALID,918.135,VALID,0,VALID,92.8989,VALID,0,VALID,20.4634,VALID,350,VALID,0.367188,
2011-04-13, 00:53:04,VALID,918.126,VALID,0,VALID,93.0743,VALID,0,VALID,20.4439,VALID,350,VALID,0.317969,
2011-04-13, 00:54:04,VALID,918.118,VALID,0,VALID,93.1963,VALID,0,VALID,20.4244,VALID,350,VALID,0.616016,
2011-04-13, 00:55:04,VALID,918.079,VALID,0,VALID,93.3335,VALID,0,VALID,20.4049,VALID,350,VALID,0.752734,
2011-04-13, 00:56:04,VALID,918.048,VALID,0,VALID,93.6003,VALID,0,VALID,20.4049,VALID,350,VALID,0.805078,
2011-04-13, 00:57:04,VALID,918.043,VALID,0,VALID,93.6384,VALID,0,VALID,20.3854,VALID,350,VALID,0.632813,
2011-04-13, 00:58:04,VALID,918.023,VALID,0,VALID,93.5851,VALID,0,VALID,20.3854,VALID,350,VALID,0.504687,
2011-04-13, 00:59:04,VALID,917.981,VALID,0,VALID,93.5088,VALID,0,VALID,20.3838,VALID,350,VALID,0.467969,
2011-04-13, 01:00:04,VALID,917.962,VALID,0,VALID,93.3411,VALID,0,VALID,20.4049,VALID,350,VALID,0.948828,
2011-04-13, 01:01:04,VALID,917.966,VALID,0,VALID,93.2725,VALID,0,VALID,20.3854,VALID,350,VALID,0.840625,
2011-04-13, 01:02:04,VALID,917.975,VALID,0,VALID,93.3335,VALID,0,VALID,20.3854,VALID,350,VALID,1.0875,
2011-04-13, 01:03:04,VALID,917.965,VALID,0,VALID,93.3106,VALID,0,VALID,20.4049,VALID,350,VALID,1.125,
2011-04-13, 01:04:04,VALID,917.942,VALID,0,VALID,93.1734,VALID,0,VALID,20.4049,VALID,350,VALID,1.21602,
2011-04-13, 01:05:04,VALID,917.962,VALID,0,VALID,93.12,VALID,0,VALID,20.4244,VALID,350,VALID,1.12734,
2011-04-13, 01:06:04,VALID,917.974,VALID,0,VALID,93.0895,VALID,0,VALID,20.4049,VALID,350,VALID,0.850781,
2011-04-13, 01:07:04,VALID,917.996,VALID,0,VALID,93.0895,VALID,0.107441,VALID,20.3838,VALID,350,VALID,0.420312,
2011-04-13, 01:08:04,VALID,918.001,VALID,0,VALID,93.1734,VALID,0,VALID,20.3838,VALID,350,VALID,0.130078,
2011-04-13, 01:09:04,VALID,918.038,VALID,0,VALID,93.1276,VALID,0,VALID,20.3854,VALID,350,VALID,0.382422,
2011-04-13, 01:10:04,VALID,918.022,VALID,0,VALID,93.1353,VALID,0,VALID,20.4033,VALID,350,VALID,0.384766,
2011-04-13, 01:11:04,VALID,918.031,VALID,0,VALID,93.1505,VALID,0,VALID,20.4423,VALID,350,VALID,0.336719,
2011-04-13, 01:12:04,VALID,918.023,VALID,0,VALID,93.0209,VALID,0,VALID,20.4634,VALID,350,VALID,0.259375,
2011-04-13, 01:13:04,VALID,918.01,VALID,0,VALID,92.838,VALID,0,VALID,20.4829,VALID,350,VALID,0.377344,
2011-04-13, 01:14:04,VALID,918.005,VALID,0,VALID,92.6245,VALID,0,VALID,20.5024,VALID,350,VALID,0.173438,
2011-04-13, 01:15:04,VALID,917.981,VALID,0,VALID,92.5254,VALID,0.107441,VALID,20.5609,VALID,350,VALID,0.208203,
2011-04-13, 01:16:04,VALID,917.962,VALID,0,VALID,92.4187,VALID,0,VALID,20.5399,VALID,350,VALID,0.132031,
2011-04-13, 01:17:04,VALID,917.958,VALID,0,VALID,92.472,VALID,0,VALID,20.5804,VALID,350,VALID,0.486328,
2011-04-13, 01:18:04,VALID,917.922,VALID,0,VALID,92.4644,VALID,0,VALID,20.5999,VALID,350,VALID,0.405078,
2011-04-13, 01:19:04,VALID,917.944,VALID,0,VALID,92.411,VALID,0,VALID,20.5789,VALID,350,VALID,0.546484,
2011-04-13, 01:20:04,VALID,917.893,VALID,0,VALID,91.9231,VALID,0,VALID,20.5609,VALID,350,VALID,0.448047,
2011-04-13, 01:21:04,VALID,917.868,VALID,0,VALID,91.9079,VALID,0,VALID,20.5024,VALID,350,VALID,0.563281,
2011-04-13, 01:22:04,VALID,917.871,VALID,0,VALID,92.2586,VALID,0,VALID,20.4244,VALID,350,VALID,0.712891,
2011-04-13, 01:23:04,VALID,917.822,VALID,0,VALID,92.8532,VALID,0,VALID,20.3854,VALID,350,VALID,1.04609,
2011-04-13, 01:24:04,VALID,917.834,VALID,0,VALID,92.9447,VALID,0,VALID,20.3269,VALID,350,VALID,0.914063,
2011-04-13, 01:25:04,VALID,917.828,VALID,0,VALID,93.0972,VALID,0,VALID,20.3269,VALID,350,VALID,0.989062,
2011-04-13, 01:26:04,VALID,917.793,VALID,0,VALID,93.1581,VALID,0,VALID,20.3253,VALID,350,VALID,1.43906,
2011-04-13, 01:27:04,VALID,917.787,VALID,0,VALID,92.8913,VALID,0,VALID,20.3659,VALID,350,VALID,0.824609,
2011-04-13, 01:28:04,VALID,917.738,VALID,0,VALID,92.4568,VALID,0,VALID,20.3659,VALID,350,VALID,0.849219,
2011-04-13, 01:29:04,VALID,917.724,VALID,0,VALID,92.5788,VALID,0,VALID,20.3659,VALID,350,VALID,0.945703,
2011-04-13, 01:30:04,VALID,917.703,VALID,0,VALID,92.6397,VALID,0,VALID,20.3854,VALID,350,VALID,0.916797,
2011-04-13, 01:31:04,VALID,917.713,VALID,0,VALID,92.5406,VALID,0,VALID,20.3643,VALID,350,VALID,0.559375,
2011-04-13, 01:32:04,VALID,917.653,VALID,0,VALID,92.5559,VALID,0,VALID,20.3854,VALID,350,VALID,1.33203,
2011-04-13, 01:33:04,VALID,917.641,VALID,0,VALID,92.4415,VALID,0,VALID,20.3643,VALID,350,VALID,1.03789,
2011-04-13, 01:34:04,VALID,917.619,VALID,0,VALID,92.4034,VALID,0,VALID,20.3448,VALID,350,VALID,0.959766,
2011-04-13, 01:35:04,VALID,917.592,VALID,0,VALID,92.5102,VALID,0,VALID,20.3253,VALID,350,VALID,1.1043,
2011-04-13, 01:36:04,VALID,917.541,VALID,0,VALID,92.6016,VALID,0,VALID,20.3269,VALID,350,VALID,1.30859,
2011-04-13, 01:37:04,VALID,917.486,VALID,0,VALID,92.8303,VALID,0,VALID,20.3074,VALID,350,VALID,1.10039,
2011-04-13, 01:38:04,VALID,917.49,VALID,0,VALID,93.1429,VALID,0,VALID,20.3074,VALID,350,VALID,0.860547,
2011-04-13, 01:39:04,VALID,917.44,VALID,0,VALID,93.2725,VALID,0.107441,VALID,20.3269,VALID,350,VALID,0.793359,
2011-04-13, 01:40:04,VALID,917.455,VALID,0,VALID,93.3182,VALID,0,VALID,20.3269,VALID,350,VALID,1.13047,
2011-04-13, 01:41:04,VALID,917.405,VALID,0,VALID,93.3106,VALID,0,VALID,20.3074,VALID,350,VALID,1.09336,
2011-04-13, 01:42:04,VALID,917.387,VALID,0,VALID,93.3487,VALID,0,VALID,20.3074,VALID,350,VALID,0.945313,
2011-04-13, 01:43:04,VALID,917.362,VALID,0,VALID,93.3716,VALID,0,VALID,20.3074,VALID,350,VALID,0.511719,
2011-04-13, 01:44:04,VALID,917.346,VALID,0,VALID,93.3487,VALID,0,VALID,20.3464,VALID,350,VALID,0.324609,
2011-04-13, 01:45:04,VALID,917.324,VALID,0,VALID,93.2725,VALID,0,VALID,20.3253,VALID,350,VALID,0.534766,
2011-04-13, 01:46:04,VALID,917.317,VALID,0,VALID,93.2725,VALID,0,VALID,20.3253,VALID,350,VALID,0.595312,
2011-04-13, 01:47:04,VALID,917.272,VALID,0,VALID,93.4555,VALID,0,VALID,20.3269,VALID,350,VALID,0.500391,
2011-04-13, 01:48:04,VALID,917.274,VALID,0,VALID,93.6079,VALID,0,VALID,20.3074,VALID,350,VALID,0.544141,
2011-04-13, 01:49:04,VALID,917.26,VALID,0,VALID,93.7451,VALID,0,VALID,20.3058,VALID,350,VALID,0.216016,
2011-04-13, 01:50:04,VALID,917.258,VALID,0,VALID,93.7909,VALID,0,VALID,20.3269,VALID,350,VALID,0,
2011-04-13, 01:51:04,VALID,917.25,VALID,0,VALID,93.768,VALID,0,VALID,20.2863,VALID,350,VALID,0.369922,
2011-04-13, 01:52:04,VALID,917.256,VALID,0,VALID,93.8214,VALID,0,VALID,20.2668,VALID,350,VALID,0.784766,
2011-04-13, 01:53:04,VALID,917.23,VALID,0,VALID,93.7451,VALID,0,VALID,20.2668,VALID,350,VALID,0.216016,
2011-04-13, 01:54:04,VALID,917.212,VALID,0,VALID,93.829,VALID,0,VALID,20.2684,VALID,350,VALID,0.246484,
2011-04-13, 01:55:04,VALID,917.175,VALID,0,VALID,93.7604,VALID,0,VALID,20.2684,VALID,350,VALID,1.27109,
2011-04-13, 01:56:04,VALID,917.199,VALID,0,VALID,93.6155,VALID,0,VALID,20.2684,VALID,350,VALID,0.640625,
2011-04-13, 01:57:04,VALID,917.181,VALID,0,VALID,93.4859,VALID,0,VALID,20.2879,VALID,350,VALID,0.360156,
2011-04-13, 01:58:04,VALID,917.188,VALID,0,VALID,93.2801,VALID,0,VALID,20.2879,VALID,350,VALID,0.633203,
2011-04-13, 01:59:04,VALID,917.184,VALID,0,VALID,93.1353,VALID,0.107441,VALID,20.2863,VALID,350,VALID,0.984375,
2011-04-13, 02:00:04,VALID,917.17,VALID,0,VALID,92.838,VALID,0,VALID,20.2879,VALID,350,VALID,1.2582,
2011-04-13, 02:01:04,VALID,917.147,VALID,0,VALID,92.6474,VALID,0,VALID,20.3074,VALID,349,VALID,1.28711,
2011-04-13, 02:02:04,VALID,917.148,VALID,0,VALID,92.4415,VALID,0,VALID,20.3074,VALID,349,VALID,1.46523,
2011-04-13, 02:03:04,VALID,917.138,VALID,0,VALID,92.3043,VALID,0,VALID,20.3058,VALID,349,VALID,1.13281,
2011-04-13, 02:04:04,VALID,917.159,VALID,0,VALID,92.3501,VALID,0,VALID,20.3058,VALID,349,VALID,0.617188,
2011-04-13, 02:05:04,VALID,917.135,VALID,0,VALID,92.3882,VALID,0,VALID,20.3269,VALID,349,VALID,0.470703,
2011-04-13, 02:06:04,VALID,917.166,VALID,0,VALID,92.6093,VALID,0,VALID,20.3659,VALID,349,VALID,0.482812,
2011-04-13, 02:07:04,VALID,917.128,VALID,0,VALID,92.8913,VALID,0,VALID,20.3464,VALID,349,VALID,0.535156,
2011-04-13, 02:08:04,VALID,917.142,VALID,0,VALID,92.7236,VALID,0,VALID,20.3253,VALID,349,VALID,0.671875,
2011-04-13, 02:09:04,VALID,917.101,VALID,0,VALID,92.7084,VALID,0,VALID,20.3269,VALID,349,VALID,0.932031,
2011-04-13, 02:10:04,VALID,917.091,VALID,0,VALID,92.7007,VALID,0,VALID,20.3058,VALID,349,VALID,0.780469,
2011-04-13, 02:11:04,VALID,917.031,VALID,0,VALID,92.7846,VALID,0,VALID,20.2863,VALID,349,VALID,0.582422,
2011-04-13, 02:12:04,VALID,917.007,VALID,0,VALID,92.8837,VALID,0.107441,VALID,20.2668,VALID,349,VALID,1.03711,
2011-04-13, 02:13:04,VALID,917.026,VALID,0,VALID,92.9294,VALID,0,VALID,20.2879,VALID,349,VALID,0.545313,
2011-04-13, 02:14:04,VALID,916.975,VALID,0,VALID,93.0133,VALID,0.107441,VALID,20.2489,VALID,349,VALID,0.458594,
2011-04-13, 02:15:04,VALID,916.961,VALID,0,VALID,93.2115,VALID,0.107441,VALID,20.1888,VALID,349,VALID,0.690625,
2011-04-13, 02:16:04,VALID,916.963,VALID,0,VALID,93.3487,VALID,0,VALID,20.1693,VALID,349,VALID,0.640625,
2011-04-13, 02:17:04,VALID,916.973,VALID,0,VALID,93.4021,VALID,0,VALID,20.1708,VALID,349,VALID,0.615625,
2011-04-13, 02:18:04,VALID,916.978,VALID,0,VALID,93.5241,VALID,0.107441,VALID,20.1498,VALID,349,VALID,0.409375,
2011-04-13, 02:19:04,VALID,916.976,VALID,0,VALID,93.5164,VALID,0.107441,VALID,20.1303,VALID,349,VALID,0.479297,
2011-04-13, 02:20:04,VALID,916.988,VALID,0,VALID,93.6613,VALID,0,VALID,20.1303,VALID,349,VALID,0.328516,
2011-04-13, 02:21:04,VALID,916.959,VALID,0,VALID,93.9052,VALID,0.107441,VALID,20.1498,VALID,349,VALID,0.286328,
2011-04-13, 02:22:04,VALID,916.956,VALID,0,VALID,94.012,VALID,0,VALID,20.1498,VALID,349,VALID,0.0996094,
2011-04-13, 02:23:04,VALID,916.94,VALID,0,VALID,94.1034,VALID,0,VALID,20.1498,VALID,349,VALID,0.572266,
2011-04-13, 02:24:04,VALID,916.905,VALID,0,VALID,93.8366,VALID,0.107441,VALID,20.1303,VALID,349,VALID,0.637109,
2011-04-13, 02:25:04,VALID,916.895,VALID,0,VALID,93.9434,VALID,0.107441,VALID,20.1318,VALID,349,VALID,0.796094,
2011-04-13, 02:26:04,VALID,916.914,VALID,0,VALID,94.1492,VALID,0.107441,VALID,20.0913,VALID,349,VALID,1.10859,
2011-04-13, 02:27:04,VALID,916.884,VALID,0,VALID,94.1873,VALID,0,VALID,20.1318,VALID,349,VALID,0.798437,
2011-04-13, 02:28:04,VALID,916.878,VALID,0,VALID,94.1644,VALID,0,VALID,20.1108,VALID,349,VALID,0.562109,
2011-04-13, 02:29:04,VALID,916.858,VALID,0,VALID,93.9662,VALID,0,VALID,20.0913,VALID,349,VALID,0.971875,
2011-04-13, 02:30:04,VALID,916.879,VALID,0,VALID,93.8976,VALID,0.107441,VALID,20.0913,VALID,349,VALID,1.06289,
2011-04-13, 02:31:04,VALID,916.862,VALID,0,VALID,93.6689,VALID,0,VALID,20.0523,VALID,349,VALID,0.798437,
2011-04-13, 02:32:04,VALID,916.904,VALID,0,VALID,93.6842,VALID,0,VALID,20.0523,VALID,349,VALID,0.400781,
2011-04-13, 02:33:04,VALID,916.891,VALID,0,VALID,93.6765,VALID,0.107441,VALID,20.0733,VALID,349,VALID,0.404687,
2011-04-13, 02:34:04,VALID,916.878,VALID,0,VALID,93.646,VALID,0.107441,VALID,20.0928,VALID,349,VALID,0.739062,
2011-04-13, 02:35:04,VALID,916.87,VALID,0,VALID,93.4783,VALID,0,VALID,20.0718,VALID,349,VALID,0.763672,
2011-04-13, 02:36:04,VALID,916.86,VALID,0,VALID,93.3411,VALID,0,VALID,20.1108,VALID,349,VALID,0.811328,
2011-04-13, 02:37:04,VALID,916.843,VALID,0,VALID,93.1353,VALID,0,VALID,20.0718,VALID,349,VALID,0.807813,
2011-04-13, 02:38:04,VALID,916.848,VALID,0,VALID,93.1429,VALID,0,VALID,20.0913,VALID,349,VALID,1.14336,
2011-04-13, 02:39:04,VALID,916.827,VALID,0,VALID,93.0895,VALID,0,VALID,20.1123,VALID,349,VALID,1.16992,
2011-04-13, 02:40:04,VALID,916.827,VALID,0,VALID,93.0133,VALID,0,VALID,20.1318,VALID,349,VALID,0.843359,
2011-04-13, 02:41:04,VALID,916.844,VALID,0,VALID,92.9523,VALID,0,VALID,20.1318,VALID,349,VALID,1.03516,
2011-04-13, 02:42:04,VALID,916.789,VALID,0,VALID,92.8608,VALID,0,VALID,20.1303,VALID,349,VALID,0.864453,
2011-04-13, 02:43:04,VALID,916.82,VALID,0,VALID,92.7693,VALID,0,VALID,20.1708,VALID,349,VALID,1.05508,
2011-04-13, 02:44:04,VALID,916.824,VALID,0,VALID,92.6931,VALID,0,VALID,20.1693,VALID,349,VALID,0.514453,
2011-04-13, 02:45:04,VALID,916.836,VALID,0,VALID,92.6321,VALID,0,VALID,20.1903,VALID,349,VALID,0.401172,
2011-04-13, 02:46:04,VALID,916.848,VALID,0,VALID,92.6321,VALID,0,VALID,20.1888,VALID,349,VALID,0.909766,
2011-04-13, 02:47:04,VALID,916.848,VALID,0,VALID,92.7312,VALID,0,VALID,20.1693,VALID,349,VALID,0.637109,
2011-04-13, 02:48:04,VALID,916.839,VALID,0,VALID,92.6931,VALID,0,VALID,20.1693,VALID,349,VALID,0.736328,
2011-04-13, 02:49:04,VALID,916.825,VALID,0,VALID,92.5864,VALID,0,VALID,20.1903,VALID,349,VALID,0.728906,
2011-04-13, 02:50:04,VALID,916.861,VALID,0,VALID,92.7084,VALID,0,VALID,20.1708,VALID,349,VALID,0.585156,
2011-04-13, 02:51:04,VALID,916.87,VALID,0,VALID,92.7465,VALID,0,VALID,20.1513,VALID,349,VALID,0.427734,
2011-04-13, 02:52:04,VALID,916.851,VALID,0,VALID,92.6702,VALID,0,VALID,20.1903,VALID,349,VALID,0.397266,
2011-04-13, 02:53:04,VALID,916.87,VALID,0,VALID,92.6702,VALID,0,VALID,20.2278,VALID,349,VALID,0.00117188,
2011-04-13, 02:54:04,VALID,916.869,VALID,0,VALID,92.6626,VALID,0,VALID,20.2489,VALID,349,VALID,0.464453,
2011-04-13, 02:55:04,VALID,916.866,VALID,0,VALID,92.6245,VALID,0,VALID,20.2684,VALID,349,VALID,0.28125,
2011-04-13, 02:56:04,VALID,916.837,VALID,0,VALID,92.4797,VALID,0,VALID,20.2879,VALID,349,VALID,0,
2011-04-13, 02:57:04,VALID,916.876,VALID,0,VALID,92.4187,VALID,0,VALID,20.3074,VALID,349,VALID,0.209375,
2011-04-13, 02:58:04,VALID,916.83,VALID,0,VALID,92.3653,VALID,0,VALID,20.3074,VALID,349,VALID,0.228906,
2011-04-13, 02:59:04,VALID,916.827,VALID,0,VALID,92.3196,VALID,0,VALID,20.2879,VALID,349,VALID,0.692578,
2011-04-13, 03:00:04,VALID,916.789,VALID,0,VALID,92.3806,VALID,0,VALID,20.2489,VALID,349,VALID,0.857031,
2011-04-13, 03:01:04,VALID,916.8,VALID,0,VALID,92.3424,VALID,0,VALID,20.2293,VALID,349,VALID,0.773047,
2011-04-13, 03:02:04,VALID,916.761,VALID,0,VALID,92.3729,VALID,0,VALID,20.1903,VALID,349,VALID,1.07539,
2011-04-13, 03:03:04,VALID,916.748,VALID,0,VALID,92.4187,VALID,0,VALID,20.1708,VALID,349,VALID,0.979688,
2011-04-13, 03:04:04,VALID,916.728,VALID,0,VALID,92.1976,VALID,0,VALID,20.1708,VALID,349,VALID,0.904297,
2011-04-13, 03:05:04,VALID,916.754,VALID,0,VALID,92.007,VALID,0,VALID,20.1708,VALID,349,VALID,1.17813,
2011-04-13, 03:06:04,VALID,916.751,VALID,0,VALID,91.9308,VALID,0,VALID,20.2098,VALID,349,VALID,0.633203,
2011-04-13, 03:07:04,VALID,916.758,VALID,0,VALID,91.8698,VALID,0,VALID,20.2098,VALID,349,VALID,0.73125,
2011-04-13, 03:08:04,VALID,916.75,VALID,0,VALID,91.9841,VALID,0,VALID,20.1498,VALID,349,VALID,0.955078,
2011-04-13, 03:09:04,VALID,916.734,VALID,0,VALID,92.1366,VALID,0.107441,VALID,20.1318,VALID,349,VALID,0.867969,
2011-04-13, 03:10:04,VALID,916.752,VALID,0,VALID,92.3272,VALID,0,VALID,20.0928,VALID,349,VALID,1.0082,
2011-04-13, 03:11:04,VALID,916.747,VALID,0,VALID,92.4797,VALID,0,VALID,20.0538,VALID,349,VALID,0.946484,
2011-04-13, 03:12:04,VALID,916.74,VALID,0,VALID,92.594,VALID,0,VALID,20.0343,VALID,349,VALID,0.860156,
2011-04-13, 03:13:04,VALID,916.742,VALID,0,VALID,92.8685,VALID,0,VALID,20.0133,VALID,349,VALID,0.562109,
2011-04-13, 03:14:04,VALID,916.742,VALID,0,VALID,93.0362,VALID,0,VALID,20.0328,VALID,349,VALID,0.551953,
2011-04-13, 03:15:04,VALID,916.714,VALID,0,VALID,93.0285,VALID,0,VALID,20.0328,VALID,349,VALID,0.313281,
2011-04-13, 03:16:04,VALID,916.706,VALID,0,VALID,93.3335,VALID,0,VALID,20.0718,VALID,349,VALID,0.430078,
2011-04-13, 03:17:04,VALID,916.705,VALID,0,VALID,93.4936,VALID,0,VALID,20.0928,VALID,349,VALID,0.359375,
2011-04-13, 03:18:04,VALID,916.698,VALID,0,VALID,93.7147,VALID,0,VALID,20.0523,VALID,349,VALID,0.466797,
2011-04-13, 03:19:04,VALID,916.712,VALID,0,VALID,93.9815,VALID,0,VALID,20.0523,VALID,349,VALID,0.588672,
2011-04-13, 03:20:04,VALID,916.677,VALID,0,VALID,94.1644,VALID,0,VALID,20.0538,VALID,349,VALID,0.582031,
2011-04-13, 03:21:04,VALID,916.677,VALID,0,VALID,94.2712,VALID,0,VALID,20.0133,VALID,349,VALID,0.421875,
2011-04-13, 03:22:04,VALID,916.644,VALID,0,VALID,94.4389,VALID,0,VALID,20.0148,VALID,349,VALID,0,
2011-04-13, 03:23:04,VALID,916.691,VALID,0,VALID,94.6066,VALID,0,VALID,20.0343,VALID,349,VALID,0,
2011-04-13, 03:24:04,VALID,916.684,VALID,0,VALID,94.7514,VALID,0,VALID,20.0328,VALID,349,VALID,0,
2011-04-13, 03:25:04,VALID,916.667,VALID,0,VALID,94.7286,VALID,0,VALID,20.0148,VALID,349,VALID,0,
2011-04-13, 03:26:04,VALID,916.663,VALID,0,VALID,94.4846,VALID,0,VALID,19.9563,VALID,349,VALID,0.128906,
2011-04-13, 03:27:04,VALID,916.687,VALID,0,VALID,94.2026,VALID,0,VALID,19.8978,VALID,349,VALID,0,
2011-04-13, 03:28:04,VALID,916.69,VALID,0,VALID,94.2102,VALID,0,VALID,19.8588,VALID,349,VALID,0,
2011-04-13, 03:29:04,VALID,916.648,VALID,0,VALID,94.1187,VALID,0,VALID,19.8198,VALID,349,VALID,0,
2011-04-13, 03:30:04,VALID,916.66,VALID,0,VALID,94.2635,VALID,0,VALID,19.8003,VALID,349,VALID,0.301562,
2011-04-13, 03:31:04,VALID,916.661,VALID,0,VALID,93.8824,VALID,0,VALID,19.7223,VALID,349,VALID,0.394922,
2011-04-13, 03:32:04,VALID,916.639,VALID,0,VALID,93.6155,VALID,0,VALID,19.6248,VALID,349,VALID,0.437891,
2011-04-13, 03:33:04,VALID,916.651,VALID,0,VALID,94.0501,VALID,0,VALID,19.5663,VALID,349,VALID,0.726172,
2011-04-13, 03:34:04,VALID,916.653,VALID,0,VALID,94.5227,VALID,0,VALID,19.5663,VALID,349,VALID,0.485156,
2011-04-13, 03:35:04,VALID,916.63,VALID,0,VALID,94.6828,VALID,0,VALID,19.5273,VALID,349,VALID,0.430078,
2011-04-13, 03:36:04,VALID,916.66,VALID,0,VALID,94.66,VALID,0,VALID,19.5273,VALID,349,VALID,0.433594,
2011-04-13, 03:37:04,VALID,916.658,VALID,0,VALID,94.5304,VALID,0,VALID,19.5273,VALID,349,VALID,0.440625,
2011-04-13, 03:38:04,VALID,916.661,VALID,0,VALID,94.5685,VALID,0,VALID,19.5078,VALID,349,VALID,0.390625,
2011-04-13, 03:39:04,VALID,916.658,VALID,0,VALID,94.5532,VALID,0,VALID,19.5063,VALID,349,VALID,0.219922,
2011-04-13, 03:40:04,VALID,916.688,VALID,0,VALID,94.5075,VALID,0,VALID,19.5258,VALID,349,VALID,0,
2011-04-13, 03:41:04,VALID,916.675,VALID,0,VALID,94.4541,VALID,0,VALID,19.5468,VALID,349,VALID,0.034375,
2011-04-13, 03:42:04,VALID,916.683,VALID,0,VALID,94.4999,VALID,0,VALID,19.5468,VALID,349,VALID,0.144531,
2011-04-13, 03:43:04,VALID,916.664,VALID,0,VALID,94.4846,VALID,0,VALID,19.5858,VALID,349,VALID,0,
2011-04-13, 03:44:04,VALID,916.667,VALID,0,VALID,94.4389,VALID,0,VALID,19.5858,VALID,349,VALID,0.464844,